| time (UTC) | temp F | wind direction | speed knots | gust knots | rain 1hr in | rain 24hr in | rain mn in | humidity % | barometer mb |
| 20260510090025 | 60 | 28 | 6.1 | 14.8 | 0.00 | 0.00 | 0.00 | 60 | 1013.5 |
| 20260510084516 | 61 | 42 | 6.1 | 13.9 | 0.00 | 0.00 | 0.00 | 60 | 1013.4 |
| 20260510083012 | 60 | 338 | 6.1 | 13.0 | 0.00 | 0.00 | 0.00 | 61 | 1013.5 |
| 20260510081511 | 60 | 28 | 8.7 | 15.6 | 0.00 | 0.00 | 0.00 | 61 | 1013.6 |
| 20260510080007 | 59 | 12 | 5.2 | 18.2 | 0.00 | 0.00 | 0.00 | 63 | 1013.7 |
| 20260510074505 | 58 | 355 | 7.8 | 15.6 | 0.00 | 0.00 | 0.00 | 63 | 1013.9 |
| 20260510073114 | 58 | 15 | 6.1 | 14.8 | 0.00 | 0.00 | 0.00 | 65 | 1014.0 |
| 20260510071558 | 57 | 360 | 7.8 | 11.3 | 0.00 | 0.00 | 0.00 | 67 | 1014.0 |
| 20260510070054 | 56 | 344 | 6.1 | 13.9 | 0.00 | 0.00 | 0.00 | 68 | 1014.0 |
| 20260510064551 | 56 | 5 | 5.2 | 11.3 | 0.00 | 0.00 | 0.00 | 70 | 1014.0 |
| 20260510063050 | 55 | 15 | 5.2 | 12.2 | 0.00 | 0.00 | 0.00 | 73 | 1014.0 |
| 20260510061546 | 55 | 355 | 5.2 | 12.2 | 0.00 | 0.00 | 0.00 | 74 | 1014.0 |
| 20260510060040 | 54 | 15 | 4.3 | 13.0 | 0.00 | 0.00 | 0.00 | 78 | 1014.1 |
| 20260510054539 | 53 | 355 | 5.2 | 13.9 | 0.00 | 0.00 | 0.00 | 81 | 1014.0 |
| 20260510053036 | 52 | 346 | 6.1 | 13.0 | 0.00 | 0.00 | 0.00 | 83 | 1014.0 |
| 20260510051532 | 51 | 39 | 5.2 | 10.4 | 0.00 | 0.00 | 0.00 | 84 | 1014.1 |
| 20260510050029 | 51 | 333 | 2.6 | 9.6 | 0.00 | 0.00 | 0.00 | 84 | 1014.0 |
| 20260510044527 | 50 | 347 | 4.3 | 9.6 | 0.00 | 0.00 | 0.00 | 84 | 1013.9 |
| 20260510043025 | 50 | 355 | 4.3 | 9.6 | 0.00 | 0.00 | 0.00 | 84 | 1013.8 |
| 20260510041521 | 50 | 346 | 4.3 | 9.6 | 0.00 | 0.00 | 0.00 | 84 | 1013.8 |
| 20260510040020 | 50 | 334 | 3.5 | 7.0 | 0.00 | 0.00 | 0.00 | 84 | 1013.8 |
| 20260510034525 | 50 | 5 | 1.7 | 7.0 | 0.00 | 0.00 | 0.00 | 84 | 1013.9 |
| 20260510033021 | 51 | 342 | 2.6 | 7.0 | 0.00 | 0.00 | 0.00 | 84 | 1013.9 |
| 20260510031513 | 51 | 345 | 1.7 | 5.2 | 0.00 | 0.00 | 0.00 | 84 | 1014.0 |
| 20260510030021 | 52 | 350 | 4.3 | 7.8 | 0.00 | 0.00 | 0.00 | 84 | 1014.0 |
| 20260510024510 | 52 | 5 | 3.5 | 7.0 | 0.00 | 0.00 | 0.00 | 83 | 1014.1 |
| 20260510023007 | 52 | 18 | 1.7 | 8.7 | 0.00 | 0.00 | 0.00 | 83 | 1014.1 |
| 20260510021509 | 52 | 28 | 2.6 | 7.8 | 0.00 | 0.00 | 0.00 | 83 | 1014.1 |
| 20260510020002 | 52 | 20 | 3.5 | 7.8 | 0.00 | 0.00 | 0.00 | 82 | 1014.2 |
| 20260510014602 | 52 | 20 | 2.6 | 8.7 | 0.00 | 0.00 | 0.00 | 81 | 1014.2 |
| 20260510013059 | 53 | 355 | 2.6 | 7.8 | 0.00 | 0.00 | 0.00 | 81 | 1014.3 |
| 20260510011556 | 53 | 336 | 2.6 | 7.0 | 0.00 | 0.00 | 0.00 | 80 | 1014.3 |
| 20260510010054 | 53 | 344 | 2.6 | 5.2 | 0.00 | 0.00 | 0.00 | 80 | 1014.4 |
| 20260510004552 | 53 | 350 | 3.5 | 7.0 | 0.00 | 0.00 | 0.00 | 80 | 1014.4 |
| 20260510003103 | 52 | 360 | 1.7 | 7.0 | 0.00 | 0.00 | 0.00 | 80 | 1014.5 |
| 20260510001549 | 52 | 350 | 2.6 | 7.0 | 0.00 | 0.00 | 0.00 | 80 | 1014.6 |
| 20260510000047 | 52 | 20 | 2.6 | 5.2 | 0.00 | 0.00 | 0.00 | 79 | 1014.7 |
| 20260509234546 | 53 | 345 | 2.6 | 4.3 | 0.00 | 0.00 | 0.00 | 78 | 1014.9 |
| 20260509233144 | 53 | 355 | 2.6 | 5.2 | 0.00 | 0.00 | 0.00 | 78 | 1014.9 |
| 20260509231541 | 53 | 21 | 1.7 | 4.3 | 0.00 | 0.00 | 0.00 | 77 | 1015.0 |
| 20260509230048 | 53 | 343 | 1.7 | 5.2 | 0.00 | 0.00 | 0.00 | 75 | 1015.1 |
| 20260509224547 | 54 | 350 | 1.7 | 5.2 | 0.00 | 0.00 | 0.00 | 74 | 1015.0 |
| 20260509223043 | 54 | 5 | 2.6 | 5.2 | 0.00 | 0.00 | 0.00 | 73 | 1014.9 |
| 20260509221534 | 54 | 355 | 3.5 | 7.0 | 0.00 | 0.00 | 0.00 | 72 | 1014.9 |
| 20260509220031 | 55 | 5 | 2.6 | 5.2 | 0.00 | 0.00 | 0.00 | 71 | 1014.9 |
| 20260509214530 | 55 | 41 | 2.6 | 7.0 | 0.00 | 0.00 | 0.00 | 70 | 1014.9 |
| 20260509213029 | 55 | 22 | 2.6 | 9.6 | 0.00 | 0.00 | 0.00 | 69 | 1014.9 |
| 20260509211527 | 55 | 13 | 3.5 | 8.7 | 0.00 | 0.00 | 0.00 | 67 | 1014.8 |
| 20260509210026 | 55 | 5 | 3.5 | 7.8 | 0.00 | 0.00 | 0.00 | 66 | 1014.7 |
| 20260509204524 | 56 | 351 | 3.5 | 7.0 | 0.00 | 0.00 | 0.00 | 63 | 1014.8 |
| 20260509203023 | 56 | 360 | 3.5 | 7.0 | 0.00 | 0.00 | 0.00 | 62 | 1014.7 |
| 20260509201520 | 57 | 325 | 2.6 | 7.8 | 0.00 | 0.00 | 0.00 | 62 | 1014.6 |
| 20260509200020 | 57 | 24 | 3.5 | 8.7 | 0.00 | 0.00 | 0.00 | 63 | 1014.7 |
| 20260509194522 | 58 | 342 | 2.6 | 7.0 | 0.00 | 0.00 | 0.00 | 64 | 1014.7 |
| 20260509193020 | 59 | 344 | 3.5 | 7.8 | 0.00 | 0.00 | 0.00 | 63 | 1014.5 |
| 20260509191518 | 60 | 355 | 3.5 | 8.7 | 0.00 | 0.00 | 0.00 | 62 | 1014.5 |
| 20260509190017 | 60 | 355 | 4.3 | 9.6 | 0.00 | 0.00 | 0.00 | 61 | 1014.5 |
| 20260509184525 | 61 | 336 | 5.2 | 9.6 | 0.00 | 0.00 | 0.00 | 61 | 1014.4 |
| 20260509183017 | 62 | 350 | 6.1 | 9.6 | 0.00 | 0.00 | 0.00 | 60 | 1014.5 |
| 20260509181515 | 63 | 326 | 3.5 | 9.6 | 0.00 | 0.00 | 0.00 | 59 | 1014.3 |
| 20260509180015 | 64 | 346 | 7.8 | 11.3 | 0.00 | 0.00 | 0.00 | 57 | 1014.3 |
| 20260509174515 | 65 | 345 | 6.1 | 13.9 | 0.00 | 0.00 | 0.00 | 55 | 1014.2 |
| 20260509173017 | 67 | 360 | 6.1 | 11.3 | 0.00 | 0.00 | 0.00 | 54 | 1014.1 |
| 20260509171513 | 68 | 306 | 5.2 | 11.3 | 0.00 | 0.00 | 0.00 | 52 | 1014.0 |
| 20260509170014 | 69 | 57 | 2.6 | 9.6 | 0.00 | 0.00 | 0.00 | 47 | 1014.0 |
| 20260509164511 | 70 | 33 | 4.3 | 10.4 | 0.00 | 0.00 | 0.00 | 47 | 1014.1 |
| 20260509163010 | 70 | 32 | 5.2 | 10.4 | 0.00 | 0.00 | 0.00 | 46 | 1014.2 |
| 20260509161508 | 70 | 360 | 5.2 | 8.7 | 0.00 | 0.00 | 0.00 | 44 | 1014.2 |
| 20260509160009 | 71 | 338 | 3.5 | 10.4 | 0.00 | 0.00 | 0.00 | 44 | 1014.2 |
| 20260509154508 | 71 | 324 | 6.1 | 10.4 | 0.00 | 0.00 | 0.00 | 44 | 1014.1 |
| 20260509153005 | 71 | 331 | 3.5 | 9.6 | 0.00 | 0.00 | 0.00 | 44 | 1014.1 |
| 20260509151503 | 72 | 360 | 5.2 | 12.2 | 0.00 | 0.00 | 0.00 | 44 | 1014.2 |
| 20260509150001 | 72 | 360 | 7.8 | 11.3 | 0.00 | 0.00 | 0.00 | 45 | 1014.2 |
| 20260509144602 | 71 | 64 | 4.3 | 11.3 | 0.00 | 0.00 | 0.00 | 46 | 1014.2 |
| 20260509143109 | 72 | 42 | 3.5 | 12.2 | 0.00 | 0.00 | 0.00 | 46 | 1014.3 |
| 20260509141557 | 72 | 320 | 3.5 | 10.4 | 0.00 | 0.00 | 0.00 | 45 | 1014.4 |
| 20260509140055 | 71 | 45 | 5.2 | 10.4 | 0.00 | 0.00 | 0.00 | 45 | 1014.5 |
| 20260509134552 | 72 | 51 | 7.0 | 10.4 | 0.00 | 0.00 | 0.00 | 46 | 1014.7 |
| 20260509133104 | 71 | 56 | 4.3 | 9.6 | 0.00 | 0.00 | 0.00 | 48 | 1014.7 |
| 20260509131549 | 72 | 34 | 5.2 | 11.3 | 0.00 | 0.00 | 0.00 | 47 | 1014.9 |
| 20260509130049 | 72 | 28 | 5.2 | 8.7 | 0.00 | 0.00 | 0.00 | 44 | 1015.0 |
| 20260509124549 | 71 | 15 | 5.2 | 11.3 | 0.00 | 0.00 | 0.00 | 48 | 1015.2 |
| 20260509123044 | 71 | 31 | 6.1 | 13.0 | 0.00 | 0.00 | 0.00 | 48 | 1015.4 |
| 20260509121549 | 71 | 72 | 5.2 | 12.2 | 0.00 | 0.00 | 0.00 | 49 | 1015.5 |
| 20260509120039 | 70 | 63 | 7.0 | 11.3 | 0.00 | 0.00 | 0.00 | 48 | 1015.6 |
| 20260509114537 | 70 | 336 | 5.2 | 9.6 | 0.00 | 0.00 | 0.00 | 46 | 1015.8 |
| 20260509113036 | 70 | 11 | 4.3 | 11.3 | 0.00 | 0.00 | 0.00 | 49 | 1015.9 |
| 20260509111531 | 70 | 57 | 3.5 | 10.4 | 0.00 | 0.00 | 0.00 | 52 | 1016.2 |
| 20260509110030 | 69 | 23 | 4.3 | 10.4 | 0.00 | 0.00 | 0.00 | 52 | 1016.2 |
| 20260509104527 | 69 | 5 | 4.3 | 10.4 | 0.00 | 0.00 | 0.00 | 51 | 1016.3 |
| 20260509103024 | 69 | 360 | 4.3 | 10.4 | 0.00 | 0.00 | 0.00 | 54 | 1016.4 |
| 20260509101529 | 68 | 55 | 4.3 | 9.6 | 0.00 | 0.00 | 0.00 | 54 | 1016.4 |
| 20260509100022 | 68 | 44 | 5.2 | 9.6 | 0.00 | 0.00 | 0.00 | 51 | 1016.6 |
| 20260509094528 | 67 | 67 | 3.5 | 9.6 | 0.00 | 0.00 | 0.00 | 53 | 1016.6 |
| 20260509093018 | 67 | 22 | 5.2 | 9.6 | 0.00 | 0.00 | 0.00 | 55 | 1016.6 |
| 20260509091517 | 66 | 36 | 3.5 | 9.6 | 0.00 | 0.00 | 0.00 | 55 | 1016.6 |